Home > Weather > Makkah > Past weeks

Flag for Saudi Arabia Weather for the Past 2 Weeks in Makkah, Saudi Arabia

Now
99 °F

Sunny.


Feels Like: 115 °F
Forecast: 80 / 107 °F
Wind: No wind

Location: Mecca Airport

Current Time: May 2, 2016 at 11:33:26 AM

Latest Report: May 2, 2016 at 10:00 AM


Visibility: 10 mi

Pressure: 29.86 "Hg

Humidity: 50%

Dew Point: 77 °F

Location of MakkahLocation

Historic Weather in Makkah — Graph

°F

Makkah Temperature Yesterday

Maximum temperature yesterday: 104 °F (at 2:00 PM)
Minimum temperature yesterday: 82 °F (at 7:00 AM)
Average temperature yesterday: 93 °F

High & Low Weather Summary for the Past Weeks

 TemperatureHumidityPressure
High106 °F (Apr 23, 1:00 PM)79% (Apr 29, 11:00 PM)29.89 "Hg (Apr 29, 11:00 PM)
Low75 °F (Apr 29, 3:00 PM)27% (Apr 17, 1:00 PM)29.65 "Hg (Apr 24, 4:00 PM)
Average92 °F49%29.78 "Hg
* Reported Apr 17 10:00 AM — May 2 10:00 AM, Makkah, Weather by CustomWeather, © 2016

Note: Actual official high and low records may vary slightly from our data, if they occured in-between our weather recording intervals... More about our weather records

Advertising

Makkah Weather History for the Previous 24 Hours

Scroll right to see more
 ConditionsComfort  
Time TempWeatherWind HumidityBarometerVisibility
10:00 AM
Mon, May 2
99 °FSunny.No wind50%29.86 "Hg10 mi
9:00 AM93 °FSunny.No wind49%29.86 "Hg10 mi
8:00 AM88 °FSunny.No wind59%29.83 "Hg10 mi
7:00 AM86 °FSunny.No wind62%29.83 "Hg10 mi
6:00 AM84 °FSunny.No wind70%29.80 "Hg10 mi
5:00 AM86 °FClear.No wind70%29.77 "Hg10 mi
4:00 AM86 °FClear.No wind75%29.77 "Hg10 mi
3:00 AM88 °FClear.No wind66%29.77 "Hg10 mi
2:00 AM88 °FClear.No wind70%29.77 "Hg10 mi
1:00 AM90 °FClear.No wind67%29.80 "Hg10 mi
12:00 AM90 °FClear.No wind63%29.83 "Hg10 mi
11:00 PM
Sun, May 1
91 °FClear.No wind59%29.86 "Hg10 mi
10:00 PM91 °FClear.No wind59%29.86 "Hg10 mi
9:00 PM93 °FClear.No wind59%29.83 "Hg10 mi
8:00 PM93 °FClear.2 mph56%29.80 "Hg10 mi
7:00 PM95 °FClear.5 mph53%29.77 "Hg10 mi
6:00 PM99 °FSunny.7 mph47%29.74 "Hg10 mi
5:00 PM100 °FSunny.2 mph42%29.74 "Hg10 mi
4:00 PM102 °FPassing clouds.5 mph37%29.74 "HgN/A
3:00 PM104 °FScattered clouds.9 mph35%29.77 "HgN/A
2:00 PM104 °FScattered clouds.9 mph31%29.77 "HgN/A
1:00 PM100 °FScattered clouds.7 mph35%29.80 "HgN/A
12:00 PM100 °FScattered clouds.2 mph37%29.83 "HgN/A
11:00 AM99 °FPassing clouds.2 mph39%29.83 "HgN/A
Weather by CustomWeather, © 2016

See weather overviewHow to use our weather pages